Wind_Speed
37 36 35 34 34 35 35 36 35 33 32 32 31 31 31 30 29 27 26 24 24 25 25 23 23 23 22 22 21 21 21 21 20 19 19 19 18 16 15 14 14 14 12 11 11 10 10 10 10 9 9 8 8 8 8 8 9 9 8 8 8 8 10 10 9 11 13 12 12 13 12 12 13 13 14 16 17 18 20 22 24 26 28 30 29
37 36 36 35 35 35 34 35 35 33 31 32 31 31 31 32 30 28 27 26 24 24 26 26 24 24 23 23 23 22 22 23 21 20 21 20 19 18 17 16 15 15 14 13 13 12 11 11 11 10 10 10 11 10 9 10 10 11 11 11 11 10 11 13 12 12 13 12 12 13 13 13 14 15 16 18 19 19 21 24 26 28 30 30 27
37 36 36 36 35 35 34 33 34 33 31 30 31 30 30 31 31 30 27 26 26 26 26 27 26 25 24 24 24 23 23 24 23 22 22 22 21 19 18 18 17 16 16 15 15 14 13 12 12 12 12 12 12 12 11 11 11 11 12 12 12 12 11 13 14 14 14 14 13 14 14 14 15 17 18 19 20 21 23 25 28 29 30 28 26
37 36 36 36 35 35 35 33 33 33 32 30 31 31 30 30 31 31 29 26 27 27 27 27 27 27 26 25 25 25 24 24 24 23 23 23 22 21 19 18 19 19 18 17 16 15 15 15 14 13 13 13 13 13 13 13 13 13 12 11 11 11 11 11 13 14 15 16 15 16 16 16 18 20 21 22 23 23 24 26 28 30 29 26 24
36 36 36 35 35 35 35 34 34 34 33 31 31 32 30 29 29 31 30 28 27 28 28 28 28 29 29 27 26 26 25 25 25 24 23 23 23 22 20 19 19 20 19 18 17 17 17 16 16 15 15 15 14 14 14 14 14 14 14 14 13 12 12 12 13 13 15 17 18 18 17 18 19 20 21 21 22 23 24 26 28 29 28 25 22
36 36 35 35 35 35 35 35 34 35 34 32 32 32 31 30 29 30 30 30 28 28 29 29 28 29 30 29 27 27 26 26 26 26 24 23 23 22 21 21 20 20 20 20 19 19 19 18 17 17 16 16 16 15 15 15 15 15 15 15 14 14 13 14 14 15 16 18 20 20 19 19 19 20 20 20 21 24 25 27 28 28 28 25 22
36 36 35 35 36 36 36 36 35 35 35 34 33 33 32 31 30 29 30 30 29 28 28 29 29 29 29 30 29 28 28 27 27 27 26 24 24 24 22 21 21 21 21 21 20 20 20 20 19 18 18 18 17 16 16 16 16 16 16 16 16 15 15 14 14 14 15 17 20 22 21 19 19 20 20 19 20 24 26 27 29 27 22 17 15
36 36 36 35 36 37 36 36 36 36 36 35 34 33 33 32 31 31 30 30 29 29 28 28 29 28 28 30 29 28 29 29 28 29 28 27 25 25 24 23 22 22 22 21 21 21 21 20 20 20 20 20 19 19 18 17 16 17 17 17 17 16 16 16 15 14 15 16 19 21 20 19 17 19 20 20 22 25 25 25 26 23 17 13 14
36 36 36 36 36 37 36 35 35 36 36 36 35 34 33 33 33 32 32 30 29 29 28 28 28 28 28 28 29 28 28 30 30 30 31 30 27 26 26 25 23 22 22 22 22 21 21 21 20 20 21 21 21 21 20 19 18 17 17 17 18 18 17 17 16 15 15 15 18 19 19 18 16 17 19 20 22 24 25 24 23 21 19 18 19
35 35 35 36 36 37 37 35 35 36 36 37 36 35 34 33 33 32 32 32 30 30 30 29 28 29 28 28 28 28 28 29 31 32 32 32 30 27 26 26 25 24 23 23 22 22 22 21 21 20 21 22 22 23 22 21 20 19 18 17 18 18 18 18 16 16 16 16 18 19 18 17 15 16 18 19 21 23 25 25 22 21 22 22 23
36 36 35 35 35 36 37 36 36 37 37 37 37 36 34 33 33 33 33 33 32 31 31 30 29 28 28 28 28 28 28 28 30 33 33 33 32 30 28 27 27 26 25 24 23 23 22 22 22 21 20 21 22 22 23 22 22 22 22 21 19 18 18 17 16 16 16 17 19 19 19 17 15 15 18 19 20 21 24 24 22 20 19 16 17
35 35 34 34 35 37 37 36 37 37 37 38 38 38 35 33 33 34 33 33 33 32 31 31 30 28 28 28 28 27 28 28 29 32 34 34 33 31 29 27 27 27 26 25 24 24 23 22 22 21 21 21 21 21 21 22 23 24 24 25 24 23 22 21 19 19 18 18 19 21 21 18 16 15 17 18 20 23 26 25 21 18 15 10 11
34 34 33 34 36 37 38 37 37 38 38 38 38 39 37 34 33 34 33 32 32 32 31 31 31 29 28 29 29 28 27 28 29 31 33 35 34 32 29 26 26 26 26 26 25 25 25 25 23 22 22 21 21 22 23 23 24 25 26 26 26 26 27 27 26 26 26 25 25 27 27 22 17 18 19 20 23 26 27 24 19 16 15 15 17
33 34 33 34 35 36 37 37 37 38 38 38 38 38 39 36 34 32 32 32 31 32 31 30 31 31 29 28 30 30 28 28 29 30 32 34 35 34 31 26 24 24 24 25 25 25 26 26 26 25 24 22 22 22 23 24 24 25 25 25 26 26 26 26 26 27 28 30 32 35 36 29 24 26 27 25 26 28 25 20 16 15 18 21 23
31 33 32 32 34 35 36 37 37 37 38 37 37 37 38 38 35 32 31 31 31 31 31 30 30 32 31 29 27 28 28 28 29 30 32 33 34 35 34 28 23 22 22 23 25 25 26 26 27 27 26 25 24 23 22 23 22 22 22 23 24 24 24 24 23 22 23 26 29 33 34 30 26 27 27 25 25 24 21 17 15 16 19 20 20
28 32 31 31 33 35 35 35 35 35 36 37 36 37 37 38 37 33 31 30 30 30 31 31 30 30 31 31 28 26 26 27 29 31 32 33 33 34 35 32 28 24 21 20 21 23 25 26 26 27 26 26 25 24 23 22 21 20 20 19 19 20 21 20 18 17 17 18 21 24 25 24 22 23 24 24 21 18 14 13 13 14 15 16 15
26 31 33 32 33 35 36 35 35 34 35 36 36 37 38 38 38 35 31 29 29 29 30 30 29 29 29 31 30 27 25 26 28 29 31 32 33 33 34 34 32 29 26 22 20 20 22 24 25 26 26 26 25 25 24 23 23 22 20 19 18 18 18 17 16 17 17 17 19 22 23 23 22 24 25 25 22 18 15 15 14 13 13 12 11
29 31 35 34 35 37 37 36 35 34 35 36 36 36 37 37 37 36 33 30 28 29 29 29 29 29 28 29 31 30 27 26 27 27 28 31 33 33 34 33 31 29 27 26 24 22 22 23 24 25 26 26 24 23 23 24 24 24 23 20 19 18 18 16 16 16 17 20 22 23 25 26 26 26 26 25 24 23 21 21 19 16 14 12 12
33 33 36 36 35 36 36 36 35 35 35 35 35 34 34 35 36 35 34 31 29 28 28 27 27 28 28 28 29 30 30 29 29 28 27 28 31 33 33 32 29 27 26 26 26 26 26 26 26 27 28 27 25 23 22 24 26 26 24 22 20 20 18 16 16 15 16 21 25 24 25 28 28 27 27 27 26 24 23 22 18 14 11 12 15
34 34 35 35 34 34 35 35 35 35 34 34 32 32 32 32 33 34 33 31 29 28 27 27 26 27 27 27 29 30 30 29 30 31 30 30 31 32 33 32 30 28 27 25 25 25 28 29 29 30 31 30 28 26 24 24 25 25 24 23 21 20 17 15 14 11 10 15 22 23 24 28 29 28 26 23 21 20 19 17 12 7 8 13 16
33 32 33 33 33 34 34 34 34 33 32 33 31 31 31 31 32 33 32 30 30 29 28 27 26 25 26 27 27 29 29 29 30 32 32 33 33 33 34 33 31 30 28 27 25 25 26 28 30 32 32 32 31 31 29 28 26 26 26 25 23 20 18 16 13 8 7 10 15 18 20 24 26 26 24 20 16 16 14 12 9 6 6 13 16
33 32 33 34 33 33 33 33 33 31 30 32 32 31 30 30 30 31 31 30 30 30 28 27 26 24 25 26 26 27 28 30 31 32 32 35 36 36 36 36 34 31 28 26 26 26 26 27 28 29 30 30 30 32 32 32 31 29 28 27 25 22 21 19 15 11 9 10 13 15 17 20 22 25 25 21 15 12 10 9 10 11 12 17 19
33 33 33 33 31 32 33 32 32 32 31 32 32 31 31 30 30 31 31 30 29 29 28 27 25 23 23 24 24 25 26 29 32 33 32 33 36 38 38 37 36 33 29 26 26 26 26 26 25 25 26 26 27 28 28 30 31 32 30 29 28 26 25 23 21 17 13 12 14 16 17 19 21 23 23 20 14 10 9 11 12 14 16 19 20
34 31 32 33 31 31 31 31 32 33 32 31 32 31 32 32 30 31 31 30 28 27 27 27 25 22 22 22 23 24 25 27 30 33 33 32 34 36 38 38 37 35 31 28 25 24 24 24 24 24 24 24 24 24 24 25 27 28 28 28 28 27 26 25 23 20 17 16 17 17 19 21 22 22 21 20 16 13 12 12 11 11 12 15 18
33 31 31 31 29 29 29 30 31 31 31 31 31 31 31 31 29 29 30 28 26 25 25 25 25 23 22 21 22 23 24 25 27 30 31 32 33 35 37 38 39 37 34 30 25 22 21 21 23 23 22 22 22 22 23 24 24 23 23 23 23 24 24 23 22 19 19 20 20 21 21 22 23 22 21 21 20 18 15 12 11 11 12 14 16
31 30 30 30 28 27 28 29 29 30 31 31 31 30 31 30 28 28 28 27 26 25 25 24 24 23 22 22 22 22 23 23 25 28 30 31 33 34 35 37 39 39 37 32 26 23 21 19 19 20 20 20 21 22 23 23 22 21 21 20 20 21 22 23 22 21 21 21 22 23 22 22 22 22 20 20 20 18 14 12 12 12 12 12 13
30 29 29 29 28 27 28 28 29 30 30 30 30 30 30 29 28 27 28 27 25 25 24 24 23 23 23 23 22 22 23 23 24 27 30 32 34 35 36 37 38 40 40 35 29 25 23 18 14 14 15 15 18 20 22 21 21 21 20 19 20 21 22 22 23 23 23 22 22 23 22 20 21 21 19 17 15 13 10 10 9 9 8 8 9
29 28 28 27 26 27 29 29 29 29 29 29 29 29 30 30 28 28 29 29 27 26 25 25 24 24 23 23 23 22 23 25 25 27 31 34 36 36 37 38 39 41 42 40 34 27 22 17 14 13 13 14 16 18 18 19 19 20 19 19 19 20 21 21 21 21 21 20 18 18 19 19 20 19 15 12 10 9 8 7 7 6 5 4 7
28 27 28 27 26 28 29 29 29 29 28 27 27 27 29 30 28 27 28 29 28 28 27 26 26 25 24 24 24 24 24 27 28 28 29 32 35 37 37 38 39 38 38 38 36 29 22 18 16 16 16 17 17 17 17 19 19 19 20 20 19 18 20 20 19 18 18 17 15 14 16 18 16 13 11 10 10 9 8 6 5 4 2 3 8
26 26 26 26 26 27 28 28 29 29 27 26 27 25 23 25 26 26 27 29 29 28 27 26 26 26 25 25 26 27 26 26 27 26 25 25 29 33 34 34 35 34 33 34 35 31 25 22 21 20 20 20 19 19 19 20 20 19 20 20 19 18 19 20 17 15 15 14 11 8 7 6 6 7 8 9 9 9 8 5 2 2 2 6 8
23 24 26 27 27 29 29 28 30 30 27 26 29 26 20 19 21 23 26 29 29 27 26 26 26 26 25 25 27 28 26 24 24 25 25 24 24 26 27 27 28 29 30 33 34 30 25 23 23 22 22 21 21 21 21 20 20 20 18 19 19 17 16 17 16 14 13 13 10 6 5 5 6 7 8 7 7 9 9 5 2 2 4 5 5
24 24 25 27 29 31 30 29 30 29 26 27 30 29 24 20 16 15 20 26 28 26 25 25 25 27 26 24 24 26 24 21 21 23 24 23 22 22 22 21 20 21 24 28 29 27 24 22 22 22 23 21 20 21 21 19 20 20 18 17 17 17 14 13 12 11 12 13 11 10 10 10 9 9 9 10 10 9 8 6 4 3 3 3 4
25 26 27 28 30 30 30 30 30 28 25 27 30 28 26 23 18 15 16 19 22 23 23 22 22 24 24 21 19 21 22 20 19 19 19 20 20 21 21 19 17 18 21 25 25 23 23 22 20 20 22 21 20 20 21 19 19 21 19 17 17 16 13 12 11 11 12 11 11 12 10 10 10 10 10 10 10 8 7 6 6 4 0 3 5
11 13 16 21 28 31 29 27 29 28 24 26 29 27 25 24 22 20 17 14 15 17 18 18 17 18 19 17 15 16 19 19 18 17 17 18 18 20 22 22 19 19 22 24 24 22 20 21 21 20 22 22 20 18 18 16 16 18 16 14 14 12 9 9 10 11 10 9 12 13 12 10 10 10 8 7 6 6 6 5 6 5 3 2 5
9 8 12 16 18 27 28 26 27 26 22 24 28 26 22 22 23 22 18 14 13 13 13 13 14 14 15 15 14 14 16 17 18 17 18 19 20 21 23 24 22 23 24 24 22 19 18 18 19 18 17 17 16 15 15 15 17 17 14 12 12 12 13 13 12 11 11 12 12 13 13 10 8 8 8 7 5 4 5 5 4 5 5 1 4
11 9 9 13 19 19 19 22 25 25 20 21 24 22 21 22 23 23 20 17 15 14 13 13 13 13 13 15 15 16 17 17 17 18 18 19 19 20 22 23 21 22 24 23 19 16 15 15 14 12 11 12 13 15 16 18 19 18 16 14 14 15 17 17 14 13 12 10 10 13 12 10 9 8 9 9 8 7 6 6 4 3 4 5 7
3 4 9 16 19 18 13 14 21 21 18 20 22 23 24 23 21 21 20 17 16 17 17 15 13 12 12 13 15 17 18 17 17 17 16 16 15 15 16 17 17 18 20 19 15 11 10 9 10 12 14 15 15 15 17 18 17 16 15 15 15 16 17 17 17 16 12 8 10 14 11 8 9 8 7 7 9 7 4 3 2 3 5 9 12
13 12 8 9 11 8 5 11 19 20 20 22 23 23 22 19 15 16 18 19 19 18 16 13 11 9 8 9 12 14 15 15 15 14 13 14 14 12 10 11 12 15 16 15 12 11 11 12 14 15 16 17 18 18 18 17 16 16 16 16 14 14 15 16 16 15 11 7 10 12 9 7 9 7 4 2 4 5 4 3 1 4 8 11 12
16 17 18 15 12 10 12 17 20 20 21 22 23 23 22 19 18 19 19 18 17 15 12 10 9 6 4 5 9 11 11 10 10 11 12 12 11 9 7 7 10 14 15 14 14 14 15 16 17 17 17 19 20 20 20 20 20 20 19 17 16 15 14 12 12 12 10 7 8 9 8 7 7 6 4 3 2 3 5 4 1 7 11 11 9
18 18 20 21 18 15 18 23 24 23 21 20 20 21 21 19 17 18 17 16 16 16 14 12 10 7 4 6 8 9 9 9 9 10 12 12 11 9 10 13 15 16 17 17 17 19 19 19 19 18 19 20 21 21 21 21 22 20 18 16 16 16 13 10 11 11 9 7 8 9 8 8 7 6 6 5 2 1 2 3 3 8 10 10 10
19 19 18 19 19 19 21 24 26 25 24 23 21 21 21 21 21 22 21 20 19 19 18 16 12 8 7 8 9 10 13 15 17 17 18 18 17 16 17 18 18 19 20 20 21 22 23 23 23 22 21 20 20 19 18 18 17 16 14 13 13 13 11 11 12 12 8 6 8 8 7 7 8 7 5 2 3 5 5 4 6 9 8 8 9
23 21 18 18 20 22 25 27 28 28 28 27 25 24 25 26 26 27 25 22 20 21 23 23 20 16 14 14 16 20 22 24 24 24 23 23 23 22 22 22 21 22 23 23 24 26 27 28 28 27 25 23 21 19 17 16 15 14 13 12 11 11 10 10 10 10 8 6 6 5 4 3 4 2 1 4 6 7 6 7 9 10 9 10 10
25 24 23 22 23 26 28 30 30 31 30 29 28 28 28 28 28 28 26 24 22 23 25 24 24 24 24 24 26 28 28 27 27 26 26 26 25 25 24 24 24 25 25 26 27 27 28 28 27 26 25 24 22 21 19 18 18 19 19 18 17 16 15 14 13 13 12 10 11 11 10 9 7 6 6 7 7 7 7 8 10 11 11 12 12
24 26 26 25 25 27 29 31 30 30 30 30 29 29 28 28 28 28 29 27 26 25 25 23 23 25 26 26 27 29 29 28 27 27 25 25 25 24 23 23 23 23 24 24 25 25 25 26 26 25 25 23 22 21 20 20 19 19 18 18 17 16 15 14 14 13 12 10 9 9 9 8 7 7 7 7 8 9 9 10 11 12 13 13 13
24 25 27 27 27 28 29 31 30 29 29 29 28 27 27 28 27 26 26 26 26 27 28 27 26 26 26 26 27 27 27 26 26 25 25 25 25 24 23 23 23 24 25 25 24 25 26 27 26 25 24 22 21 20 19 18 17 16 15 14 14 13 12 11 10 9 7 5 3 3 5 5 5 6 7 8 8 9 10 10 11 12 13 13 12
25 25 26 28 28 28 29 29 30 31 30 29 27 25 25 26 26 25 23 23 23 24 26 26 25 24 24 25 26 25 24 24 24 24 24 25 25 24 24 24 25 26 27 27 26 26 26 25 24 24 22 21 20 19 18 17 16 15 13 12 12 12 10 9 7 6 5 4 2 2 2 4 5 7 7 7 7 7 8 9 10 11 12 13 13
27 25 24 26 28 28 27 27 28 29 30 30 29 27 26 25 26 27 28 27 27 27 26 25 25 24 23 23 24 24 23 23 24 24 24 25 24 23 22 24 25 25 25 25 25 25 25 25 25 24 23 22 21 20 19 18 16 15 14 13 12 12 10 8 8 7 6 5 6 8 9 8 7 7 7 7 7 7 8 8 9 10 10 11 12
27 25 24 24 26 28 28 27 26 26 25 26 27 29 29 28 27 27 28 29 29 29 28 28 28 27 26 26 25 25 24 24 23 22 22 23 24 23 22 23 24 25 25 25 25 25 26 27 27 26 26 25 23 22 21 20 19 17 16 15 14 13 11 10 10 10 8 6 8 9 10 8 6 6 7 6 6 7 8 8 8 8 9 10 11
27 26 24 24 24 25 27 28 26 24 23 24 24 26 27 28 29 29 30 30 28 27 27 28 28 27 26 25 24 24 24 24 23 21 21 21 22 23 23 23 25 26 26 25 25 26 27 27 27 27 27 26 25 24 23 22 20 19 18 16 15 13 12 11 12 12 10 9 10 10 8 6 5 5 5 5 5 6 7 8 9 10 10 11 12
24 24 24 24 24 24 25 26 25 24 23 24 24 25 27 27 26 27 29 30 29 27 26 26 26 25 23 23 22 22 23 23 22 21 20 21 22 23 23 23 24 25 25 25 25 26 27 26 26 26 26 26 25 24 23 21 20 18 16 14 12 11 11 11 12 12 12 12 13 11 8 6 6 6 5 5 5 6 7 9 10 11 11 11 13
22 22 23 23 23 23 24 24 23 22 23 23 23 25 27 28 27 27 27 28 27 25 23 23 24 24 23 23 22 22 22 22 22 22 21 21 23 23 23 24 25 26 26 26 25 25 24 24 23 23 23 23 24 23 22 21 19 16 14 12 12 11 11 11 11 12 12 12 12 11 9 8 8 8 7 7 7 8 9 10 10 11 10 10 11
Wind_Direction
194 192 189 187 188 189 190 192 194 195 196 198 199 201 203 205 206 208 210 209 208 209 209 205 203 203 204 204 204 203 202 202 203 207 210 212 212 212 214 218 219 218 218 223 229 232 233 231 233 238 235 234 239 242 247 247 237 232 235 237 236 234 234 237 244 262 274 283 287 290 294 294 291 286 281 281 280 279 277 277 279 279 279 280 282
193 191 188 188 188 187 187 190 193 194 195 197 199 201 203 205 206 207 208 209 208 208 209 208 207 205 205 205 205 205 204 203 202 205 208 211 213 213 213 215 216 216 217 220 224 228 232 232 232 234 235 235 236 236 242 248 240 232 230 230 233 237 235 236 240 254 269 277 280 284 288 287 284 283 282 282 281 280 278 277 277 277 277 280 283
192 190 189 188 187 186 186 188 190 192 193 195 198 200 202 204 205 206 207 208 208 208 208 207 208 208 207 207 207 207 207 204 202 204 207 210 212 213 214 214 213 213 215 218 219 222 226 229 230 232 233 234 234 235 240 246 248 246 243 233 225 227 234 237 238 248 264 273 277 281 285 285 282 281 281 281 282 281 281 280 279 279 279 280 283
192 189 189 188 186 185 185 186 188 190 192 195 197 199 200 202 204 205 207 207 207 207 207 206 207 209 208 209 208 208 208 206 204 204 207 210 212 213 215 216 216 213 215 218 218 218 221 226 228 228 231 234 234 235 240 245 250 254 257 253 239 233 238 241 242 248 261 271 276 278 281 282 281 283 285 284 283 283 282 281 281 280 281 283 285
192 190 189 188 185 184 185 186 187 189 192 195 197 199 199 199 201 202 205 206 205 205 205 206 206 208 209 210 210 209 208 207 205 205 207 210 212 214 215 216 217 217 217 218 219 219 220 224 227 227 230 234 235 235 238 243 246 249 254 256 254 251 249 248 250 255 261 271 276 278 279 280 281 284 286 285 285 285 283 281 281 283 284 285 287
193 190 188 188 186 185 186 186 187 189 191 195 196 198 199 199 199 200 203 205 205 204 204 205 206 207 208 210 210 210 209 208 207 206 207 209 211 212 214 216 218 219 219 220 221 222 222 224 227 228 229 233 234 235 237 239 242 246 250 252 253 255 253 250 248 250 255 263 272 276 276 276 278 280 283 284 283 282 283 283 283 285 287 288 288
192 189 188 189 187 187 187 187 188 189 191 194 195 196 198 199 199 200 202 204 205 205 203 203 205 207 208 209 210 210 209 208 208 207 206 208 210 211 212 215 217 218 220 221 222 222 223 224 226 228 228 230 233 234 235 237 240 243 248 252 254 253 253 253 250 247 246 252 263 269 271 273 275 276 280 284 281 278 280 282 284 288 294 298 297
192 189 188 189 188 188 189 189 189 190 191 193 195 195 197 199 199 199 200 202 204 206 204 202 203 206 208 208 209 210 209 208 208 208 208 208 209 210 211 213 215 217 219 221 222 223 222 223 224 227 230 231 231 232 234 236 238 241 243 247 251 252 252 254 255 254 251 252 259 266 271 274 273 274 279 280 276 276 277 278 281 290 306 318 315
193 189 188 190 189 188 189 189 189 191 192 193 195 196 197 198 199 199 198 200 203 205 206 204 201 202 206 208 208 208 208 208 208 209 208 209 210 210 210 212 214 216 217 219 221 224 224 224 225 226 230 232 232 231 232 234 236 238 241 244 246 249 251 252 254 256 258 258 261 266 269 270 269 270 270 268 270 277 281 281 282 292 309 318 315
193 190 190 190 189 188 188 189 189 191 192 194 195 197 198 199 200 200 198 199 202 204 207 207 202 200 204 206 207 208 209 209 209 210 210 210 210 210 211 212 214 215 216 217 220 223 224 226 229 230 230 231 233 234 233 234 234 234 237 240 242 245 248 250 252 254 257 258 260 263 265 264 264 265 266 269 275 279 281 283 289 304 318 321 317
194 192 191 190 188 187 188 188 189 191 192 193 195 196 198 199 200 201 200 199 201 203 205 207 205 201 201 204 205 207 210 212 211 211 212 212 211 211 212 212 213 215 217 218 220 222 224 226 230 234 235 234 233 234 234 235 236 237 238 239 240 242 244 247 250 251 254 258 260 262 262 264 265 266 271 276 278 277 278 285 300 317 324 324 318
197 194 191 188 187 187 188 188 189 190 191 192 194 196 199 199 200 202 202 199 199 201 204 207 208 204 201 202 205 207 210 213 214 212 212 213 213 213 213 214 215 216 217 219 221 222 225 227 228 231 234 236 237 235 234 236 240 244 247 245 244 245 247 248 250 251 254 261 265 265 263 266 272 273 276 278 279 280 283 291 307 319 321 324 316
197 194 191 188 187 187 188 189 189 190 191 192 193 195 197 200 200 201 203 201 199 200 203 206 209 209 204 202 204 208 211 214 215 214 213 214 215 214 214 216 218 218 219 220 222 223 225 227 229 231 231 233 234 234 235 237 242 246 249 251 251 251 252 253 254 255 257 260 265 265 264 266 271 273 275 278 280 284 287 295 309 316 317 321 317
193 192 192 189 188 188 188 190 190 191 192 192 192 194 196 199 201 200 201 201 200 200 202 206 209 212 211 206 205 207 211 214 216 216 216 216 217 216 216 217 220 221 222 222 222 224 225 226 229 230 231 232 232 232 231 234 240 243 246 248 250 252 254 255 255 255 255 255 258 262 264 265 266 270 274 275 278 282 286 294 303 306 309 313 313
190 189 191 188 187 189 190 191 192 192 191 191 192 194 196 198 200 201 200 201 202 201 202 205 208 211 214 214 210 208 211 214 216 217 218 218 219 218 217 217 220 223 225 225 224 224 224 226 229 230 231 232 232 231 230 231 234 239 243 245 248 251 254 256 256 254 253 253 256 262 269 270 268 271 274 274 275 279 281 286 292 299 304 307 307
192 186 189 188 187 189 191 192 193 192 191 191 192 193 195 197 199 200 200 201 203 202 202 205 208 210 213 216 216 214 215 217 217 217 218 219 218 218 218 218 221 225 227 228 227 225 225 226 228 231 232 233 233 232 231 230 229 233 238 242 244 248 252 256 260 258 254 256 261 268 275 275 272 272 271 270 272 276 281 286 292 300 305 303 302
200 186 188 190 188 190 192 193 194 193 192 192 193 193 195 196 198 199 200 200 201 201 202 205 208 210 211 213 216 218 218 219 220 219 219 218 215 215 217 219 222 227 230 231 230 228 227 227 228 230 232 233 234 233 231 229 228 228 231 235 238 242 246 253 262 264 259 258 265 272 274 271 267 267 266 267 269 276 287 298 304 312 313 306 307
208 192 190 191 190 190 192 193 194 193 193 193 194 194 195 196 197 198 199 200 199 200 201 204 207 210 211 212 214 216 219 221 223 221 220 217 214 213 215 216 221 226 230 234 235 233 232 232 231 232 234 234 235 235 232 228 226 226 229 232 237 241 244 250 258 263 259 251 253 263 267 265 263 263 265 269 272 277 290 302 309 316 318 316 322
206 195 192 192 191 191 191 193 193 194 195 195 195 195 194 194 196 197 199 201 200 201 202 203 207 210 212 213 212 213 217 222 223 223 221 217 212 212 212 213 217 223 227 231 235 235 235 235 234 234 236 237 237 236 234 229 227 228 229 231 235 240 243 245 247 252 250 240 239 250 262 264 262 259 262 269 272 278 291 300 307 317 321 320 327
204 197 193 191 191 190 190 193 194 194 194 194 193 194 193 193 195 196 199 201 201 201 202 203 207 210 211 213 212 212 215 220 223 223 221 218 214 211 210 211 214 219 223 226 229 232 233 235 235 236 237 237 237 236 234 232 230 229 228 228 231 235 236 235 235 240 238 229 232 242 256 264 266 263 265 270 275 285 296 298 296 311 330 324 323
200 194 191 189 190 190 190 192 193 192 193 191 191 192 192 193 195 196 198 200 201 202 203 203 206 209 209 211 212 212 213 217 221 223 222 221 218 212 209 212 215 218 221 224 226 228 230 232 233 235 237 237 236 236 236 235 233 230 228 227 229 231 230 224 221 220 208 209 220 231 245 260 269 272 276 283 291 296 299 291 270 261 307 319 313
193 190 189 189 190 189 190 191 190 189 191 191 191 193 192 192 194 195 197 200 201 202 203 204 206 208 208 210 212 213 213 215 219 222 223 222 220 215 213 216 218 218 219 222 225 227 229 231 232 234 237 237 237 237 237 238 237 235 232 231 231 232 231 228 229 231 221 208 209 218 231 248 261 271 278 283 288 286 280 272 263 262 282 302 306
188 187 187 188 189 189 188 188 189 191 194 192 191 192 191 192 194 195 196 199 200 201 203 204 206 208 207 208 211 213 214 215 218 221 223 223 221 219 219 219 219 218 218 221 225 227 229 231 232 233 235 236 235 235 235 236 236 237 237 237 235 234 235 238 242 244 239 224 214 213 220 232 244 254 262 267 266 256 247 254 265 272 279 290 297
183 183 184 185 187 188 188 188 190 194 196 193 191 191 190 192 195 195 196 198 198 199 200 202 205 208 208 208 211 213 214 215 218 220 221 222 222 221 221 221 219 219 220 221 225 229 231 232 232 233 234 235 234 232 230 230 232 234 237 239 240 241 241 241 243 243 234 223 217 214 215 219 225 233 242 247 245 235 229 239 256 269 274 276 280
178 179 181 184 185 185 187 190 194 197 197 194 192 191 190 192 194 193 193 196 196 196 197 199 202 207 210 210 210 211 211 212 216 219 220 222 223 222 222 222 221 220 220 221 224 230 232 230 229 229 229 232 232 228 225 224 225 228 231 234 237 240 240 237 235 229 220 215 213 214 216 217 219 226 233 232 226 221 222 231 245 251 252 256 264
176 177 179 182 184 184 185 190 196 200 200 197 194 193 191 193 193 191 190 194 195 193 194 196 199 204 209 210 210 210 210 210 213 216 218 220 223 223 223 223 223 222 220 219 223 229 233 233 231 229 228 230 229 225 221 219 218 219 220 222 226 229 231 230 224 216 214 214 211 210 215 219 220 221 218 211 209 215 226 239 247 248 249 255 262
174 175 176 180 183 184 186 190 196 202 202 197 194 194 194 193 193 189 188 191 194 193 192 192 195 200 206 209 210 209 210 210 211 213 214 216 219 221 222 222 223 222 220 218 220 226 230 233 232 230 230 226 221 220 218 214 212 211 212 215 220 223 225 225 221 217 216 212 210 212 215 214 211 208 202 199 205 217 228 234 240 244 250 263 273
173 174 175 178 183 186 188 193 198 202 200 195 193 194 194 194 194 190 188 190 192 192 192 193 194 198 202 204 206 207 210 211 211 212 213 215 215 216 218 220 221 221 220 219 220 223 228 232 232 230 227 216 209 210 212 211 212 213 213 215 220 223 225 222 220 219 215 208 211 215 206 194 192 194 196 201 204 203 205 212 224 235 243 267 283
172 173 175 177 183 188 190 194 199 200 196 191 190 192 193 195 195 192 191 193 194 193 193 194 197 199 200 200 201 203 207 211 213 215 217 216 216 216 217 219 220 221 221 222 221 221 222 225 225 223 219 212 207 206 209 211 212 213 216 220 222 222 220 216 214 214 211 210 214 205 185 179 183 188 193 195 186 178 186 201 209 214 225 260 269
171 174 177 181 184 188 190 193 196 198 195 185 179 180 184 189 191 190 191 195 196 196 196 197 199 200 201 203 204 205 210 213 213 215 218 217 216 218 221 222 222 222 223 222 219 217 217 218 219 221 220 216 213 211 212 213 210 209 215 218 216 211 209 209 212 213 208 206 205 188 165 173 195 204 202 191 177 180 197 208 193 181 231 263 269
175 177 180 185 187 188 192 194 193 195 193 179 170 167 164 170 179 184 188 192 194 197 199 200 202 202 203 206 208 208 212 214 211 213 217 217 214 215 220 224 224 224 226 222 214 211 215 217 218 221 222 221 221 219 219 221 217 211 208 207 206 205 204 207 213 214 201 191 185 175 167 181 207 230 226 198 177 189 200 204 203 218 245 272 293
180 184 187 190 189 188 191 192 192 193 185 171 168 167 158 152 158 167 177 186 191 196 199 200 202 204 205 207 208 206 206 208 208 211 214 213 209 208 212 216 214 215 221 220 212 209 214 217 219 221 221 223 225 221 220 225 220 207 200 200 203 206 204 202 205 195 178 173 175 177 178 181 197 220 217 195 187 189 188 190 204 219 249 302 329
187 189 192 191 189 189 191 189 188 190 182 167 166 169 162 156 152 147 155 172 183 190 196 197 198 202 203 205 207 206 205 205 204 204 206 205 202 202 204 206 203 201 206 208 205 208 215 218 220 222 218 220 224 219 217 223 214 201 198 198 199 200 198 195 190 170 155 167 187 187 182 187 196 200 193 183 180 177 173 183 193 192 261 345 349
229 216 218 206 189 186 191 189 184 186 182 166 165 170 168 164 159 151 146 155 168 178 187 191 191 195 200 201 203 206 208 209 207 205 205 201 196 194 196 198 197 198 202 203 202 206 212 216 223 227 222 222 224 217 210 207 195 186 184 179 177 176 165 168 175 163 157 188 206 191 181 188 191 185 178 172 171 172 176 186 187 173 146 19 354
293 281 278 265 223 193 187 183 179 182 177 164 165 170 167 162 162 158 154 156 161 164 171 177 177 179 187 192 193 195 199 203 203 202 200 192 185 184 187 191 193 195 199 202 203 204 209 216 226 230 222 215 210 196 180 166 156 153 150 147 151 154 150 157 170 172 180 204 204 177 168 178 179 172 176 179 180 187 193 198 189 157 142 147 307
252 244 235 257 256 231 199 177 173 179 176 160 155 154 145 146 160 170 171 168 160 152 153 160 165 167 171 176 179 179 182 184 184 184 186 185 184 184 186 188 191 194 197 200 202 206 214 221 219 206 183 173 173 168 156 144 141 145 151 153 159 163 163 166 170 171 180 198 186 160 156 165 171 179 191 189 191 203 198 188 182 154 166 218 261
231 247 196 206 228 239 220 168 156 161 158 139 134 138 143 149 161 172 172 159 144 141 147 154 161 166 168 172 173 173 174 176 176 177 180 184 188 192 193 193 195 194 195 198 199 199 200 195 181 168 155 148 147 147 145 144 146 151 156 157 157 161 167 171 172 172 174 171 162 162 165 167 176 200 224 200 185 189 180 160 175 216 232 244 256
83 78 103 160 189 203 171 124 123 126 123 117 119 133 144 143 136 137 137 131 127 132 139 147 153 154 162 180 187 183 180 180 180 181 185 186 189 195 202 205 199 187 178 177 178 171 157 146 144 146 143 139 136 135 137 141 145 148 152 152 147 148 158 165 169 172 170 153 153 164 173 174 179 202 243 222 173 178 176 163 222 267 273 273 264
74 85 91 95 94 84 77 83 92 98 101 104 109 116 121 118 113 114 116 116 118 120 121 126 127 119 131 185 189 180 176 177 175 175 176 174 175 180 182 173 163 152 144 142 144 141 134 128 129 132 133 133 132 131 131 134 138 139 141 141 139 141 148 156 167 175 176 170 167 169 171 176 182 194 214 227 232 205 177 156 282 287 290 301 304
59 70 85 92 93 83 72 73 77 80 83 90 98 104 109 112 114 113 108 102 100 98 95 97 96 92 112 152 157 153 153 151 144 142 140 133 127 125 126 124 122 120 120 121 122 120 117 115 117 119 123 126 128 127 128 130 132 131 131 133 140 147 152 158 171 181 178 165 160 160 164 174 184 193 203 212 256 348 73 59 319 284 292 321 339
53 54 63 78 89 87 75 70 72 75 79 82 85 88 94 99 101 101 97 91 89 90 89 88 90 98 120 132 132 129 124 117 111 107 104 101 99 101 103 102 101 103 107 111 111 111 109 107 106 106 109 115 120 124 126 128 128 131 140 150 156 164 171 173 177 182 179 158 155 164 175 184 186 194 208 216 16 13 12 350 307 289 299 322 325
50 48 47 56 70 75 72 72 75 77 79 80 81 84 89 94 98 98 95 91 91 92 90 88 89 95 103 108 110 110 106 101 97 95 92 91 92 93 93 92 92 96 100 103 105 106 103 101 101 102 102 104 109 114 118 120 116 116 124 133 136 142 150 152 149 150 145 126 111 106 97 105 129 146 341 7 11 354 330 311 305 304 307 307 302
50 50 48 50 60 69 72 73 76 77 77 77 80 84 88 91 93 94 95 95 96 94 91 87 87 90 94 100 103 101 96 92 91 91 89 89 90 91 92 93 94 97 100 103 105 104 101 100 103 104 102 102 104 105 104 105 104 101 101 103 102 102 105 102 97 96 94 81 66 59 51 48 52 42 18 10 6 351 331 319 319 319 315 310 307
56 54 50 46 50 60 67 69 71 74 77 78 79 81 84 87 89 92 94 97 96 93 89 87 86 87 88 92 96 94 91 89 90 89 87 86 88 90 92 95 98 100 102 103 104 103 102 102 103 103 101 100 101 101 99 99 101 100 97 97 95 90 85 82 80 78 77 76 71 57 40 32 34 29 13 359 350 345 341 335 331 329 327 324 322
59 61 60 53 45 47 56 65 69 71 73 74 75 76 79 84 88 92 96 98 97 94 90 87 86 86 85 86 89 89 88 87 87 86 86 86 86 86 88 92 96 101 103 104 106 107 106 105 104 103 102 100 100 99 96 94 95 95 91 88 89 85 75 69 68 67 68 72 65 21 1 1 2 359 352 342 335 334 335 334 332 334 335 334 331
55 60 68 69 60 50 49 56 65 70 71 71 71 70 71 73 77 82 86 88 89 89 86 83 83 82 82 85 88 88 87 86 86 87 88 87 84 84 86 88 91 95 99 102 104 106 107 108 109 108 106 104 102 100 98 97 95 93 88 82 81 79 73 68 65 61 57 59 60 40 26 21 13 5 359 353 347 344 340 338 338 336 333 330 328
59 56 59 68 71 67 59 53 57 63 67 71 73 73 70 69 70 72 73 73 75 75 72 71 72 74 75 80 83 84 84 86 87 89 90 88 85 86 89 88 87 88 90 93 96 100 102 105 106 105 104 102 100 98 97 96 95 93 90 88 85 80 75 74 74 70 67 77 87 76 57 40 26 14 6 1 357 351 344 339 335 330 325 323 323
67 61 56 58 66 72 72 67 62 59 61 66 72 75 75 74 72 70 70 70 72 72 70 67 69 72 74 75 78 80 82 83 84 86 87 86 85 88 90 89 87 87 87 86 88 93 96 98 99 100 99 98 96 95 93 92 92 91 88 86 84 81 78 78 79 76 75 88 93 77 53 32 21 16 10 4 355 344 338 335 331 325 320 316 312
73 70 67 64 64 69 74 78 77 74 72 71 71 72 73 73 72 73 74 72 70 70 72 73 73 73 74 74 75 77 79 80 80 81 82 83 85 88 91 93 92 90 87 84 85 89 93 93 94 95 95 93 92 91 89 86 85 85 82 79 80 80 79 81 83 81 78 79 81 74 55 32 26 22 6 354 344 334 332 334 333 328 321 313 309
74 77 78 76 75 77 79 82 83 84 85 85 83 81 79 78 75 74 75 74 72 71 72 74 75 74 72 71 73 75 76 77 79 80 80 82 84 85 86 88 88 86 84 83 85 87 88 87 87 88 89 87 85 84 82 79 77 76 75 77 80 81 81 84 86 85 82 77 73 67 55 39 33 25 7 360 358 348 337 334 329 321 316 315 315
70 76 80 79 79 80 81 82 84 85 85 87 88 88 87 86 84 81 79 79 78 75 73 74 76 76 74 73 74 75 75 76 77 78 78 80 82 84 85 88 89 90 89 88 86 85 83 82 81 82 82 80 78 76 74 71 70 70 71 75 77 78 82 87 88 87 84 77 67 59 52 46 41 32 24 20 13 358 345 337 327 318 313 313 311
Height
770 773 775 777 780 782 786 789 792 795 798 801 804 806 809 811 813 815 817 819 821 823 824 826 827 829 831 833 835 836 837 839 841 842 843 844 845 846 847 848 849 850 851 852 852 853 854 854 855 855 856 856 856 856 856 856 856 857 858 859 859 859 859 859 859 857 856 856 855 854 854 854 853 852 851 849 848 847 846 844 842 840 838 836 837
766 768 770 773 775 778 781 785 788 792 794 797 800 802 805 807 810 812 814 816 818 820 821 823 825 827 828 830 832 834 835 836 838 840 841 842 843 844 845 846 847 848 849 850 851 852 852 853 853 854 855 855 855 855 855 855 855 855 856 857 858 858 858 858 857 856 855 855 855 854 853 853 851 850 849 847 846 845 844 842 840 838 836 835 836
761 763 766 768 771 774 778 781 784 788 791 794 796 799 801 804 806 808 811 813 815 816 818 820 822 824 826 828 829 831 833 834 836 837 838 840 841 842 843 844 845 846 847 848 849 850 850 851 852 852 853 854 854 854 854 854 854 854 854 855 855 856 857 856 856 854 853 853 853 852 852 851 850 848 847 846 844 843 842 840 837 835 834 835 836
757 759 761 764 766 770 773 777 780 784 786 789 792 795 797 800 802 805 807 810 811 813 815 817 819 821 823 825 826 828 830 831 833 835 836 837 838 840 841 842 843 844 845 846 847 848 849 849 850 851 851 852 852 852 853 853 853 853 853 853 854 855 855 855 855 854 852 851 851 851 850 850 849 847 845 844 842 841 840 837 834 832 833 835 836
753 755 757 760 762 765 768 772 775 778 782 785 787 790 793 796 798 801 804 806 807 810 812 814 816 818 820 822 824 825 827 829 830 832 834 835 836 838 839 840 841 842 843 844 845 846 847 847 848 849 849 850 850 851 851 852 852 852 852 852 853 853 854 854 854 854 852 850 849 849 849 848 847 846 844 842 840 839 837 834 832 830 831 833 834
748 751 753 756 758 761 764 767 770 773 776 780 783 786 789 792 794 797 799 802 804 806 808 810 812 814 816 818 820 822 824 826 827 829 831 832 834 835 837 838 839 840 841 842 843 844 845 845 846 847 847 848 848 849 850 850 850 850 850 850 851 851 852 852 852 852 852 850 847 847 847 847 846 844 843 841 839 836 833 831 830 829 830 831 832
744 746 749 751 753 756 759 762 765 768 772 775 778 782 785 788 790 793 795 798 800 802 804 807 809 811 813 815 817 819 821 823 825 826 828 829 831 832 834 835 836 837 838 839 841 842 842 843 844 844 845 846 846 847 848 848 849 848 849 848 849 849 850 850 850 850 850 849 847 845 844 845 845 843 841 840 837 834 832 830 827 827 829 829 829
739 741 744 746 748 751 754 757 761 764 768 771 774 777 780 783 786 788 791 794 796 799 800 803 805 808 810 811 814 816 817 819 821 823 825 826 828 829 830 832 833 834 836 837 838 839 840 841 841 842 843 843 844 845 846 846 847 847 847 847 847 847 847 848 848 848 848 847 845 843 842 843 844 842 840 838 835 832 830 829 827 826 828 828 827
736 737 739 741 743 746 750 754 757 761 764 767 770 773 776 779 782 784 787 790 792 795 797 799 802 804 807 808 811 813 814 816 817 819 821 823 824 826 827 829 830 831 833 834 835 836 837 838 839 839 840 841 841 842 843 844 845 845 845 845 845 845 845 846 846 846 846 845 843 841 841 841 842 841 838 836 834 830 828 828 827 826 827 826 826
732 733 735 736 739 742 746 750 753 757 760 763 767 770 773 776 778 781 783 785 788 791 793 796 798 800 803 805 808 810 811 812 813 815 817 819 821 823 824 825 827 829 830 831 832 834 835 836 836 836 837 837 838 839 840 841 842 843 843 843 843 843 843 843 843 844 844 842 841 839 838 839 841 840 837 834 833 830 827 826 826 826 826 825 823
728 729 730 733 736 739 742 746 749 752 756 759 763 766 769 772 775 777 780 782 785 787 789 792 794 796 799 802 804 806 807 808 810 811 814 815 818 820 821 822 824 825 827 828 829 831 832 833 833 834 834 835 835 836 837 838 839 840 841 841 841 841 841 841 841 841 841 840 838 836 835 836 838 838 835 833 831 829 827 826 826 827 827 826 823
725 726 727 730 733 736 738 742 745 748 751 755 759 762 766 769 771 774 776 778 781 783 786 788 790 792 795 797 800 802 803 805 806 808 810 813 815 817 818 820 821 822 824 825 827 828 829 830 831 831 832 832 833 834 834 835 836 837 837 838 839 839 839 839 839 839 839 837 835 833 832 833 835 835 834 832 830 828 826 826 827 828 827 827 825
721 722 725 727 729 731 735 738 741 744 747 750 754 758 762 765 767 770 772 775 778 780 783 785 787 789 791 793 796 798 800 802 803 805 807 809 812 814 816 817 818 820 821 822 824 825 826 827 828 828 829 830 830 831 832 833 833 834 835 836 836 837 837 837 837 837 837 835 832 828 828 831 833 832 831 831 829 827 826 826 827 827 826 825 824
716 718 720 723 725 729 732 734 737 740 743 747 750 754 757 760 763 767 769 772 774 777 780 782 784 786 788 789 792 794 796 798 800 802 804 806 809 811 813 815 816 817 818 819 821 822 823 824 824 825 826 827 827 828 828 829 830 831 832 833 833 833 834 834 834 834 834 833 829 824 823 827 830 828 828 828 827 825 825 825 826 825 824 823 822
710 714 717 720 723 726 729 731 734 736 740 743 747 750 754 757 760 763 766 769 771 773 776 779 781 783 785 787 789 790 792 794 796 799 801 803 805 808 810 813 814 815 816 817 818 819 820 821 821 822 823 823 824 825 826 827 827 828 829 830 830 831 831 831 831 831 830 829 827 822 820 823 826 824 823 824 824 824 824 824 824 823 822 821 819
708 710 714 717 719 723 726 728 731 734 737 740 743 746 750 753 756 760 762 765 768 770 773 776 778 780 783 785 786 787 789 791 793 795 797 799 802 805 808 810 811 812 813 814 815 816 816 817 818 819 820 820 821 822 824 825 825 826 826 827 828 828 828 827 827 828 827 826 824 820 817 819 821 820 819 820 822 822 821 822 822 822 821 820 817
708 707 709 712 715 719 722 725 728 731 734 736 739 742 745 749 753 756 759 762 765 767 770 772 775 777 779 781 783 785 786 788 790 791 793 796 799 802 804 806 808 809 810 811 812 813 814 814 815 816 816 817 818 819 821 822 823 823 824 824 825 825 825 825 825 825 825 824 822 818 815 816 817 816 816 817 818 818 818 818 819 819 819 818 816
706 704 705 708 711 714 718 721 724 728 730 732 735 738 741 745 749 753 756 759 761 764 766 769 772 774 776 778 780 782 784 785 787 789 791 793 796 798 801 803 805 806 807 808 809 810 811 811 812 813 813 814 815 816 817 819 819 820 821 822 822 823 823 824 824 823 823 822 819 816 813 812 813 814 814 815 815 815 815 814 815 816 817 817 816
699 699 701 704 707 710 714 718 721 724 726 729 732 735 739 743 746 750 753 755 758 761 764 766 769 771 773 775 777 779 781 782 784 786 788 791 793 795 798 800 801 802 803 805 806 806 807 808 809 810 810 811 812 813 814 815 816 817 818 819 819 820 820 822 822 822 821 819 817 814 810 808 810 813 814 814 814 813 813 812 813 814 815 816 816
692 695 699 702 705 708 712 715 718 720 723 727 730 734 737 741 744 747 750 753 755 758 760 763 765 767 770 772 773 775 778 779 781 783 785 787 789 792 794 796 797 799 800 801 802 802 803 804 804 805 806 808 809 810 811 812 812 813 814 815 815 816 818 819 820 819 818 816 815 814 809 805 806 810 813 813 813 812 812 811 812 814 815 815 815
688 693 697 700 703 706 709 713 715 718 722 725 729 732 735 738 741 744 747 750 752 754 757 759 762 764 766 768 770 772 774 775 777 779 781 783 785 788 790 791 792 794 795 796 797 798 798 798 799 800 801 803 805 806 807 808 808 809 810 811 812 813 815 816 816 817 817 816 814 813 810 806 803 804 807 809 810 809 810 810 811 812 813 813 813
685 690 694 697 701 703 707 710 714 718 721 724 727 729 732 735 738 741 744 746 748 751 753 756 758 760 762 764 766 768 770 771 773 775 777 779 781 783 785 786 788 790 791 792 793 793 794 794 794 795 797 798 800 801 802 803 804 805 806 807 809 810 811 812 813 814 816 815 814 812 811 808 805 803 804 806 807 808 808 809 810 810 811 811 810
682 686 691 694 698 701 705 708 712 716 719 721 723 726 728 732 735 737 740 742 745 747 750 752 755 757 759 761 762 764 766 767 769 771 773 775 777 779 780 782 783 785 787 788 788 789 790 790 791 792 793 794 795 796 797 799 800 801 802 804 805 806 807 809 810 812 813 814 813 812 810 809 807 806 805 805 807 808 808 808 808 809 810 809 809
679 684 688 692 696 699 703 707 710 713 715 718 720 722 725 728 731 733 736 739 741 744 746 749 752 753 755 757 759 761 763 764 765 766 769 771 773 774 776 778 779 781 783 784 785 786 787 787 788 789 789 790 792 793 794 795 796 797 799 800 802 803 804 805 806 808 809 810 810 809 808 807 806 806 805 806 807 808 808 808 808 809 810 810 809
676 680 685 689 693 697 701 705 709 711 712 715 717 718 721 724 727 729 732 735 737 740 742 745 748 750 752 754 755 757 759 760 761 762 764 767 768 770 772 774 775 777 779 780 782 783 783 784 785 786 787 788 788 790 791 791 793 794 796 798 799 799 800 801 802 803 804 805 805 805 805 804 804 804 804 804 805 807 807 808 808 809 810 811 811
674 678 682 687 691 695 699 703 706 708 710 712 713 715 717 720 722 725 727 731 733 735 738 741 744 746 748 750 751 753 755 756 757 758 761 763 764 766 768 769 771 774 776 778 779 780 781 781 782 783 784 785 786 786 787 788 790 791 793 794 795 795 796 797 798 799 799 800 800 801 801 801 802 802 802 803 804 805 806 807 807 808 809 810 811
672 675 680 684 689 693 696 700 703 705 707 708 710 713 714 716 719 721 723 726 729 731 734 737 739 742 744 746 748 749 751 753 753 754 756 758 759 761 763 765 768 771 773 775 776 777 778 779 780 781 782 783 784 784 785 786 788 789 790 791 791 792 792 793 794 795 796 796 797 798 798 799 799 800 800 801 802 803 804 805 806 808 809 810 810
670 673 677 682 686 689 693 696 699 701 702 704 707 709 710 712 714 716 717 720 723 726 729 732 734 737 739 742 744 745 747 748 748 749 750 752 754 757 759 761 764 766 769 771 773 776 777 778 779 781 781 782 782 783 784 785 786 787 787 788 788 789 790 791 792 793 794 795 796 796 796 796 797 798 799 800 801 802 803 805 806 807 808 809 810
668 671 675 679 683 686 689 692 695 696 699 701 703 704 706 708 710 712 714 717 719 722 724 727 730 732 735 737 739 740 741 742 743 745 745 747 750 753 755 757 759 762 765 768 771 774 776 776 777 778 779 779 780 781 782 782 783 784 784 785 786 786 787 789 790 791 792 794 795 795 795 796 797 797 798 800 801 802 803 805 806 806 807 808 809
666 669 672 675 679 682 685 688 690 692 694 696 698 699 702 704 706 709 711 714 717 719 721 724 726 729 731 732 734 735 736 737 740 743 744 745 748 750 752 754 756 759 762 765 768 770 772 773 774 775 775 776 777 778 779 779 780 781 782 782 783 784 785 787 789 790 791 793 794 796 798 801 803 802 801 801 802 803 804 805 806 806 807 807 808
664 666 668 671 674 677 680 682 684 687 689 690 692 695 698 701 703 706 708 711 715 717 719 722 724 726 728 729 730 731 734 736 738 740 741 743 746 748 750 753 755 757 759 761 764 766 767 769 770 771 772 773 773 774 775 776 776 778 779 780 781 782 784 786 788 789 790 790 792 795 798 802 806 808 806 804 804 804 804 804 805 806 807 807 807
660 662 664 666 668 671 674 676 679 681 683 685 689 691 694 698 701 704 706 709 712 715 717 719 721 723 725 726 727 729 731 734 736 738 739 741 743 746 748 751 752 755 757 759 761 763 764 766 767 768 769 769 769 770 772 772 773 775 776 778 779 781 783 784 786 787 787 788 790 793 796 798 801 804 804 803 802 802 801 802 804 806 807 807 806
659 659 660 661 663 667 669 671 673 676 677 680 684 687 691 694 698 702 705 708 711 713 716 717 719 721 723 724 726 728 730 732 734 736 738 740 742 744 747 749 751 752 754 756 759 761 762 763 764 765 766 766 767 767 769 769 770 772 774 775 777 779 781 783 784 786 788 792 794 794 794 795 797 799 799 799 797 797 797 799 801 804 805 806 805
661 661 662 662 661 662 664 666 668 671 673 676 680 684 688 691 695 699 704 707 710 712 714 716 718 720 721 723 725 727 729 731 733 734 736 738 740 742 745 747 749 750 752 753 755 757 759 761 762 762 763 764 764 765 765 767 769 771 773 775 777 779 781 786 789 790 792 794 794 792 793 795 796 797 798 797 796 795 795 796 798 801 803 805 805
667 667 669 670 666 662 661 663 665 668 670 673 676 681 685 690 694 699 702 705 709 711 714 716 718 719 721 723 725 727 729 730 732 733 735 737 738 741 743 745 746 748 749 751 753 755 757 758 760 760 760 761 762 762 763 765 767 770 774 777 778 779 782 787 791 792 793 794 792 791 792 794 795 797 798 797 797 796 795 795 797 798 801 803 804
670 669 671 675 674 668 663 661 662 665 668 670 674 679 683 688 693 696 700 703 707 710 713 716 718 720 722 723 725 727 728 730 731 733 734 736 738 739 741 743 744 746 747 750 752 754 755 757 757 758 758 759 760 761 762 764 766 768 771 774 775 777 780 784 788 790 791 792 791 790 791 793 794 796 796 796 795 795 794 795 796 798 800 802 802
668 668 668 672 676 675 669 662 659 661 665 668 671 676 680 684 688 692 697 702 705 708 712 716 718 720 722 723 725 726 728 730 731 733 735 737 738 739 740 741 742 744 746 749 751 753 754 755 756 756 756 758 759 760 761 764 765 766 768 771 774 776 780 782 784 787 788 788 788 789 790 792 794 795 795 794 794 794 793 794 795 797 799 800 800
665 666 667 671 675 676 671 663 658 659 663 666 670 674 679 683 687 691 696 701 704 708 712 715 718 720 722 723 724 726 728 730 732 733 735 736 738 739 740 741 742 743 745 747 749 750 752 753 754 755 756 757 759 759 761 763 765 767 770 773 776 778 780 781 783 785 786 786 786 787 789 791 793 794 795 794 794 793 793 794 795 796 798 798 799
667 667 668 671 673 674 669 661 658 660 664 667 671 675 680 685 689 692 697 701 705 709 712 715 718 720 722 723 725 726 728 730 732 733 735 736 737 738 739 740 741 742 744 746 747 749 751 752 753 754 755 757 758 759 761 763 765 768 772 775 776 778 779 781 783 786 787 787 787 787 788 790 793 794 794 794 794 794 793 793 794 796 797 797 797
671 670 669 669 673 675 671 663 660 662 666 670 674 677 682 686 690 694 698 702 706 709 713 716 719 722 723 724 726 727 729 730 731 733 735 736 737 738 739 740 741 742 744 746 748 750 751 753 754 756 757 758 759 761 764 766 767 769 772 775 777 778 780 782 784 786 787 788 788 788 788 790 792 793 794 794 794 793 792 792 794 795 796 797 796
675 674 673 672 674 674 670 665 664 666 669 672 676 680 684 688 692 695 700 704 708 712 715 719 721 723 724 726 726 727 728 730 731 733 735 736 738 739 741 743 744 745 746 748 750 751 753 755 757 758 760 762 763 765 767 769 771 773 774 776 778 780 781 782 784 785 786 787 788 788 789 790 791 792 793 794 793 792 792 792 794 795 795 796 796
679 680 680 678 675 672 668 667 669 671 672 676 679 683 687 691 694 698 702 707 711 715 718 721 723 724 726 727 727 727 729 731 733 735 737 738 740 742 744 745 747 748 749 751 752 754 755 756 758 760 762 763 765 767 769 771 773 774 775 776 778 780 780 781 782 783 785 786 787 787 788 790 791 792 792 792 792 792 792 793 794 794 794 794 794
682 683 683 682 679 674 671 672 674 676 678 681 684 687 691 694 698 701 705 709 714 717 720 723 725 726 728 729 729 729 731 733 735 737 739 741 743 745 747 748 750 751 753 754 755 757 757 757 758 761 763 765 767 768 770 771 772 773 775 776 778 779 779 780 781 782 783 784 785 786 788 789 790 791 791 791 791 792 792 793 793 793 793 793 793
685 684 684 685 684 680 677 677 680 683 685 688 691 693 696 699 702 705 709 713 717 720 722 725 727 728 730 731 731 732 735 737 739 741 743 744 746 748 750 751 753 754 755 757 758 759 759 760 761 763 765 767 769 770 772 772 773 774 775 777 778 779 780 781 782 782 782 783 785 787 789 790 790 790 790 791 791 792 792 792 793 793 792 792 792
689 687 687 688 689 687 685 684 686 689 692 695 699 701 703 705 708 712 715 718 720 722 724 727 729 731 733 735 736 737 740 742 743 745 746 748 749 751 753 754 755 756 756 758 759 760 761 763 764 765 767 769 771 772 773 774 774 775 776 777 778 779 781 783 783 783 784 785 787 789 790 791 791 791 791 791 791 792 792 792 792 792 792 792 791
695 694 692 691 692 694 695 695 696 697 699 702 705 708 711 713 716 718 721 722 724 725 726 729 732 735 738 739 740 742 744 746 747 749 750 752 754 755 756 757 758 759 759 760 761 762 763 765 766 767 769 771 772 773 774 775 775 776 778 779 779 780 782 783 784 784 785 786 788 789 790 790 791 791 791 791 792 792 792 792 792 792 791 791 791
700 702 702 698 696 698 702 705 707 708 709 710 711 714 717 720 722 724 725 726 727 728 730 732 736 739 742 744 745 747 748 750 751 752 754 755 756 758 759 760 762 763 763 764 765 766 766 767 768 769 771 773 774 775 776 777 778 779 780 780 781 782 783 784 784 785 786 787 787 788 789 790 790 791 791 791 792 792 792 792 792 791 791 791 790
704 707 710 708 706 705 707 710 714 718 721 722 721 721 723 725 726 727 729 730 731 732 734 738 741 743 746 748 750 751 752 754 754 755 757 757 758 760 762 763 765 766 767 768 769 770 770 771 772 773 774 775 776 777 778 779 780 781 781 782 783 783 784 785 785 785 786 786 786 787 788 789 789 790 790 791 791 791 792 792 791 791 790 790 789
710 712 715 715 715 715 716 717 721 725 728 730 730 730 730 730 731 731 731 733 736 738 741 743 746 749 751 753 755 756 757 758 759 760 761 761 761 762 764 765 767 768 770 772 773 773 774 775 776 776 777 778 779 780 781 782 782 783 784 784 785 785 786 786 785 786 786 786 786 787 788 789 789 790 790 791 791 791 791 791 790 790 790 789 788
718 718 720 721 723 724 724 726 728 731 732 733 734 734 734 735 736 737 736 737 740 744 747 748 751 754 756 758 760 761 762 763 764 765 767 767 766 766 767 768 769 771 772 775 776 777 778 780 781 781 782 782 783 784 784 785 785 785 786 786 786 786 786 786 786 786 787 787 787 787 788 789 790 790 791 791 791 791 791 790 790 789 789 788 787
725 724 725 726 727 728 730 732 735 737 737 737 737 736 736 736 738 739 740 741 744 748 751 752 754 757 760 762 764 765 766 767 769 770 771 771 770 770 771 771 772 773 775 776 778 780 782 784 785 785 786 786 787 787 787 787 787 787 788 787 787 787 787 787 787 787 787 787 787 788 788 789 789 790 790 790 790 790 790 790 789 788 788 787 786